Location: Nairn
(57.5833°N, 3.8667°W)
Time: 21:10:08
(UTC+00:00)

Altair - Pass Details

Date: 04 October 2022
Orbit: 1501 x 1682 km, 47.2° (Epoch: 05 December)

Event Time Altitude Azimuth Distance (km) Brightness Sun altitude
Exits shadow 04:08:33 - 195° (SSW) 4,548 9.6 -18.8°
Reaches altitude 10° 04:11:37 10° 184° (S) 3,811 9.3 -18.4°
Maximum altitude 04:18:34 23° 138° (SE) 2,982 9.2 -17.6°
Drops below altitude 10° 04:25:39 10° 92° (E) 3,914 10.7 -16.7°
Sets 04:29:42 0° 79° (E) 4,923 11.9 -16.2°
